Terug naar catalogus

STARLINK-32515

ActiefCommunicatieVLEO
NORAD 61705·PAYLOAD·🇺🇸 United States

Gelanceerd Oct 30, 2024 vanaf Vandenberg Space Force Base

Loading…

Volgende Passages (komende 24 uur)

TLE

VersSource: CelesTrak SupGP

Epoch: Sep 15, 2026, 02:20 UTC

1 61705C 24195U   26258.09770833  .00067391  00000+0  19906-2 0  2580
2 61705  53.1585 354.6361 0001105  97.1532 275.8324 15.34364865    17

Volg STARLINK-32515 in realtime met AllMySat

Download on the App Store